K8MUD Weather Reports


Display with metric or nautical units.
time (UTC)temp
F
wind
direction
speed
MPH
gust
MPH
rain 1hr
in
rain 24hr
in
rain mn
in
humidity
%
barometer
mb
20260905203001 80 89 2.0 9.0 0.00 0.00 0.00 59 1014.6
20260905202503 80 92 3.0 9.0 0.00 0.00 0.00 60 1014.5
20260905202501 80 94 3.0 9.0 0.00 0.00 0.00 60 1014.5
20260905202003 80 89 2.0 8.0 0.00 0.00 0.00 60 1014.5
20260905201505 80 88 2.0 8.0 0.00 0.00 0.00 60 1014.6
20260905201502 80 91 2.0 8.0 0.00 0.00 0.00 60 1014.7
20260905201002 80 92 3.0 8.0 0.00 0.00 0.00 60 1014.6
20260905200523 80 91 3.0 8.0 0.00 0.00 0.00 62 1014.6
20260905200502 80 89 3.0 8.0 0.00 0.00 0.00 61 1014.6
20260905200026 80 88 3.0 9.0 0.00 0.00 0.00 62 1014.5
20260905200002 80 87 3.0 9.0 0.00 0.00 0.00 62 1014.5
20260905195502 80 86 3.0 9.0 0.00 0.00 0.00 62 1014.6
20260905195002 80 85 3.0 8.0 0.00 0.00 0.00 63 1014.5
20260905194502 80 87 4.0 8.0 0.00 0.00 0.00 62 1014.4
20260905194026 80 90 3.0 8.0 0.00 0.00 0.00 61 1014.5
20260905194002 80 89 3.0 8.0 0.00 0.00 0.00 62 1014.6
20260905193502 80 79 3.0 7.0 0.00 0.00 0.00 64 1014.6
20260905193002 80 73 3.0 8.0 0.00 0.00 0.00 63 1014.6
20260905192505 80 78 3.0 9.0 0.00 0.00 0.00 64 1014.6
20260905192502 80 80 4.0 9.0 0.00 0.00 0.00 63 1014.7
20260905192002 80 86 4.0 9.0 0.00 0.00 0.00 62 1014.6
20260905191504 80 88 4.0 9.0 0.00 0.00 0.00 63 1014.7
20260905191502 80 89 3.0 9.0 0.00 0.00 0.00 63 1014.7
20260905191001 80 88 3.0 7.0 0.00 0.00 0.00 63 1014.8
20260905190502 79 88 4.0 10.0 0.00 0.00 0.00 64 1014.7
20260905190001 79 93 4.0 9.0 0.00 0.00 0.00 63 1014.9
20260905185526 79 92 4.0 10.0 0.00 0.00 0.00 62 1014.9
20260905185501 79 90 4.0 10.0 0.00 0.00 0.00 62 1014.9
20260905185023 80 86 4.0 10.0 0.00 0.00 0.00 62 1014.9
20260905185001 80 84 4.0 10.0 0.00 0.00 0.00 63 1014.8
20260905184502 80 83 4.0 8.0 0.00 0.00 0.00 63 1014.9
20260905184001 80 80 4.0 10.0 0.00 0.00 0.00 63 1015.0
20260905183522 80 83 3.0 10.0 0.00 0.00 0.00 62 1015.0
20260905183501 80 84 3.0 10.0 0.00 0.00 0.00 62 1015.0
20260905183026 80 90 3.0 9.0 0.00 0.00 0.00 65 1015.1
20260905183001 80 95 3.0 9.0 0.00 0.00 0.00 64 1015.1
20260905182502 80 92 3.0 9.0 0.00 0.00 0.00 63 1015.1
20260905182005 80 90 3.0 7.0 0.00 0.00 0.00 64 1015.1
20260905182001 80 89 3.0 7.0 0.00 0.00 0.00 65 1015.1
20260905181501 80 89 4.0 8.0 0.00 0.00 0.00 64 1015.0
20260905181002 80 87 4.0 9.0 0.00 0.00 0.00 63 1015.1
20260905180502 81 85 3.0 9.0 0.00 0.00 0.00 62 1015.2
20260905180001 80 81 2.0 7.0 0.00 0.00 0.00 63 1015.0
20260905175502 80 74 2.0 7.0 0.00 0.00 0.00 64 1015.1
20260905175002 80 82 2.0 8.0 0.00 0.00 0.00 65 1015.2
20260905174502 79 86 3.0 9.0 0.00 0.00 0.00 65 1015.2
20260905174001 79 87 4.0 9.0 0.00 0.00 0.00 64 1015.3
20260905173502 79 88 3.0 8.0 0.00 0.00 0.00 63 1015.2
20260905173500 79 88 3.0 8.0 0.00 0.00 0.00 64 1015.2
20260905173023 79 94 2.0 8.0 0.00 0.00 0.00 64 1015.2
20260905173000 79 95 2.0 7.0 0.00 0.00 0.00 63 1015.2
20260905172502 79 91 2.0 7.0 0.00 0.00 0.00 63 1015.3
20260905172500 79 90 2.0 7.0 0.00 0.00 0.00 63 1015.3
20260905172002 80 78 2.0 7.0 0.00 0.00 0.00 63 1015.4
20260905172000 80 77 2.0 7.0 0.00 0.00 0.00 63 1015.4
20260905171502 80 65 2.0 7.0 0.00 0.00 0.00 64 1015.4
20260905171500 80 66 2.0 7.0 0.00 0.00 0.00 64 1015.4
20260905171002 79 68 2.0 7.0 0.00 0.00 0.00 66 1015.5
20260905171000 79 68 2.0 7.0 0.00 0.00 0.00 65 1015.5
20260905170502 79 83 3.0 7.0 0.00 0.00 0.00 65 1015.5
20260905170500 79 84 2.0 7.0 0.00 0.00 0.00 65 1015.5
20260905170004 79 79 2.0 7.0 0.00 0.00 0.00 65 1015.4
20260905170000 79 79 2.0 7.0 0.00 0.00 0.00 67 1015.4
20260905165502 78 67 2.0 8.0 0.00 0.00 0.00 66 1015.4
20260905165500 78 67 2.0 8.0 0.00 0.00 0.00 67 1015.4
20260905165023 78 66 2.0 8.0 0.00 0.00 0.00 68 1015.4
20260905165000 78 68 2.0 8.0 0.00 0.00 0.00 68 1015.3
20260905164526 77 75 2.0 7.0 0.00 0.00 0.00 69 1015.4
20260905164500 77 80 2.0 7.0 0.00 0.00 0.00 69 1015.3
20260905164023 77 90 2.0 7.0 0.00 0.00 0.00 68 1015.4
20260905164000 77 90 3.0 7.0 0.00 0.00 0.00 69 1015.5
20260905163502 77 90 2.0 7.0 0.00 0.00 0.00 69 1015.4
20260905163459 77 88 2.0 7.0 0.00 0.00 0.00 70 1015.5
20260905163002 77 85 2.0 8.0 0.00 0.00 0.00 69 1015.5
20260905162959 76 85 2.0 8.0 0.00 0.00 0.00 71 1015.4
20260905162502 76 90 2.0 8.0 0.00 0.00 0.00 71 1015.4
20260905162459 76 91 3.0 8.0 0.00 0.00 0.00 71 1015.4
20260905162002 76 93 3.0 8.0 0.00 0.00 0.00 71 1015.4
20260905161959 76 91 3.0 8.0 0.00 0.00 0.00 72 1015.4
20260905161523 75 90 3.0 7.0 0.00 0.00 0.00 73 1015.4
20260905161459 75 89 3.0 8.0 0.00 0.00 0.00 73 1015.5
20260905161005 75 87 3.0 8.0 0.00 0.00 0.00 73 1015.4
20260905160959 75 89 3.0 8.0 0.00 0.00 0.00 75 1015.4
20260905160523 75 87 3.0 8.0 0.00 0.00 0.00 73 1015.4
20260905160459 75 86 2.0 8.0 0.00 0.00 0.00 73 1015.4
20260905160023 74 85 2.0 7.0 0.00 0.00 0.00 74 1015.4
20260905155959 74 84 2.0 7.0 0.00 0.00 0.00 73 1015.3
20260905155502 74 79 2.0 5.0 0.00 0.00 0.00 74 1015.3
20260905155459 74 80 2.0 5.0 0.00 0.00 0.00 74 1015.3
20260905155005 74 79 1.0 4.0 0.00 0.00 0.00 75 1015.3
20260905154959 74 76 1.0 4.0 0.00 0.00 0.00 75 1015.3
20260905154523 74 77 2.0 5.0 0.00 0.00 0.00 76 1015.3
20260905154459 74 75 2.0 5.0 0.00 0.00 0.00 76 1015.3
20260905154023 74 74 2.0 6.0 0.00 0.00 0.00 76 1015.2
20260905153959 74 74 2.0 6.0 0.00 0.00 0.00 76 1015.2
20260905153502 74 82 2.0 7.0 0.00 0.00 0.00 76 1015.2
20260905153459 74 86 2.0 7.0 0.00 0.00 0.00 76 1015.2
20260905153001 73 87 2.0 8.0 0.00 0.00 0.00 76 1015.3
20260905152958 73 90 2.0 8.0 0.00 0.00 0.00 76 1015.2
20260905152501 73 81 2.0 8.0 0.00 0.00 0.00 76 1015.1
20260905152458 73 81 2.0 8.0 0.00 0.00 0.00 76 1015.1
20260905152002 73 81 2.0 6.0 0.00 0.01 0.00 76 1015.2
20260905151958 73 79 2.0 6.0 0.00 0.01 0.00 77 1015.1
20260905151502 73 91 1.0 3.0 0.00 0.01 0.00 78 1015.0
20260905151458 73 91 1.0 3.0 0.00 0.01 0.00 78 1015.0
20260905151001 73 86 1.0 4.0 0.00 0.01 0.00 78 1015.0
20260905150958 73 87 2.0 5.0 0.00 0.01 0.00 77 1015.0
20260905150502 72 83 2.0 5.0 0.00 0.02 0.00 78 1015.0
20260905150458 72 82 2.0 5.0 0.00 0.02 0.00 78 1014.9
20260905150005 72 77 1.0 5.0 0.00 0.03 0.00 77 1015.0
20260905145958 72 74 1.0 5.0 0.00 0.03 0.00 78 1015.1
20260905145523 72 76 1.0 5.0 0.00 0.03 0.00 78 1015.0
20260905145458 72 83 1.0 5.0 0.00 0.03 0.00 78 1014.9
20260905145005 72 84 1.0 4.0 0.00 0.04 0.00 78 1014.8
20260905144958 72 84 2.0 4.0 0.00 0.04 0.00 78 1014.9
20260905144502 72 80 2.0 5.0 0.00 0.04 0.00 78 1014.9
20260905144458 72 79 2.0 6.0 0.00 0.04 0.00 78 1014.9
20260905144002 72 81 2.0 6.0 0.00 0.04 0.00 79 1014.7
20260905143958 72 83 2.0 6.0 0.00 0.05 0.00 79 1014.7
20260905143502 72 82 2.0 7.0 0.00 0.05 0.00 79 1014.8
20260905143458 72 80 2.0 7.0 0.00 0.05 0.00 79 1014.8
20260905143002 72 74 2.0 7.0 0.00 0.05 0.00 79 1014.7
20260905142958 72 70 1.0 7.0 0.00 0.05 0.00 79 1014.7
20260905142503 71 69 1.0 6.0 0.00 0.05 0.00 79 1014.7
20260905142458 71 68 1.0 6.0 0.00 0.05 0.00 79 1014.7
20260905142002 71 63 1.0 6.0 0.00 0.06 0.00 79 1014.8
20260905141958 71 66 2.0 6.0 0.00 0.06 0.00 79 1014.8
20260905141502 71 68 1.0 6.0 0.00 0.06 0.00 80 1014.8
20260905141457 71 68 1.0 6.0 0.00 0.06 0.00 79 1014.8
20260905141026 71 80 1.0 6.0 0.00 0.07 0.00 79 1014.8
20260905140958 71 84 1.0 6.0 0.00 0.07 0.00 80 1014.9
20260905140503 71 80 1.0 4.0 0.00 0.07 0.00 80 1015.0
20260905140457 71 80 1.0 4.0 0.00 0.07 0.00 79 1015.0
20260905140023 71 83 1.0 5.0 0.00 0.08 0.00 79 1015.0
20260905135957 71 82 1.0 6.0 0.00 0.08 0.00 79 1015.0
20260905135523 71 77 2.0 6.0 0.00 0.09 0.00 79 1014.9
20260905135457 71 76 2.0 6.0 0.00 0.09 0.00 79 1014.9
20260905135005 71 70 1.0 6.0 0.00 0.09 0.00 80 1014.9
20260905134957 71 73 2.0 5.0 0.00 0.09 0.00 80 1014.7
20260905134503 71 81 1.0 8.0 0.00 0.09 0.00 80 1014.7
20260905134457 71 84 1.0 8.0 0.00 0.10 0.00 80 1014.7
20260905134026 71 83 1.0 8.0 0.00 0.10 0.00 79 1014.7
20260905133957 71 83 1.0 8.0 0.00 0.10 0.00 79 1014.5
20260905133502 71 81 1.0 5.0 0.00 0.10 0.00 79 1014.9
20260905133457 71 79 1.0 5.0 0.00 0.10 0.00 79 1014.8
20260905133002 71 97 0.0 3.0 0.00 0.10 0.00 80 1014.9
20260905132957 71 97 0.0 3.0 0.00 0.10 0.00 80 1014.9
20260905132503 70 97 0.0 4.0 0.00 0.10 0.00 80 1014.9
20260905132457 70 91 0.0 6.0 0.00 0.10 0.00 80 1014.9
20260905132002 70 84 1.0 6.0 0.00 0.10 0.00 81 1014.9
20260905131957 70 83 1.0 6.0 0.00 0.10 0.00 81 1014.9
20260905131502 70 75 1.0 6.0 0.00 0.10 0.00 80 1014.9
20260905131457 70 75 1.0 5.0 0.00 0.10 0.00 80 1014.9
20260905131002 70 75 1.0 5.0 0.00 0.10 0.00 81 1014.9
20260905130957 70 74 0.0 5.0 0.00 0.10 0.00 81 1014.9
20260905130524 70 78 0.0 3.0 0.00 0.10 0.00 81 1014.7
20260905130457 70 77 0.0 3.0 0.00 0.10 0.00 81 1014.7
20260905130002 70 0 0.0 0.0 0.00 0.10 0.00 82 1014.6
20260905125957 70 0 0.0 0.0 0.00 0.10 0.00 81 1014.6
20260905125523 69 0 0.0 0.0 0.00 0.10 0.00 82 1014.6
20260905125457 69 0 0.0 0.0 0.00 0.10 0.00 82 1014.6
20260905125005 69 80 0.0 4.0 0.00 0.10 0.00 82 1014.6
20260905124957 69 85 0.0 4.0 0.00 0.10 0.00 82 1014.7
20260905124502 69 90 0.0 4.0 0.00 0.10 0.00 83 1014.9
20260905124456 69 90 1.0 4.0 0.00 0.10 0.00 83 1014.8
20260905124005 69 87 1.0 4.0 0.00 0.10 0.00 83 1014.8
20260905123956 69 85 1.0 4.0 0.00 0.10 0.00 83 1014.8
20260905123502 69 75 1.0 5.0 0.00 0.10 0.00 83 1014.8
20260905123456 69 76 1.0 5.0 0.00 0.10 0.00 83 1014.8
20260905123002 69 78 1.0 5.0 0.00 0.10 0.00 84 1014.8
20260905122956 69 79 1.0 8.0 0.00 0.10 0.00 83 1014.8
20260905122502 69 82 1.0 8.0 0.00 0.11 0.00 84 1014.7
20260905122456 69 81 1.0 8.0 0.00 0.11 0.00 84 1014.7
20260905122005 69 82 1.0 8.0 0.00 0.11 0.00 84 1014.6
20260905121956 69 77 1.0 6.0 0.00 0.11 0.00 84 1014.5
20260905121502 69 77 1.0 6.0 0.00 0.11 0.00 85 1014.6
20260905121456 69 81 1.0 6.0 0.00 0.11 0.00 85 1014.6
20260905121026 69 75 2.0 6.0 0.00 0.11 0.00 85 1014.5
20260905120956 69 75 2.0 6.0 0.00 0.11 0.00 85 1014.5
20260905120503 69 68 2.0 5.0 0.00 0.11 0.00 85 1014.5
20260905120456 69 63 2.0 5.0 0.00 0.11 0.00 85 1014.5
20260905120002 69 68 2.0 5.0 0.00 0.11 0.00 85 1014.4
20260905115956 69 70 2.0 5.0 0.00 0.11 0.00 85 1014.4
20260905115502 69 78 1.0 5.0 0.00 0.11 0.00 85 1014.5
20260905115456 69 78 1.0 5.0 0.00 0.11 0.00 85 1014.5
20260905115005 69 79 2.0 8.0 0.00 0.11 0.00 85 1014.6
20260905114956 69 79 2.0 8.0 0.00 0.11 0.00 85 1014.6
20260905114503 69 81 1.0 8.0 0.00 0.11 0.00 85 1014.5
20260905114456 69 82 1.0 8.0 0.00 0.11 0.00 85 1014.5
20260905114006 69 80 1.0 6.0 0.00 0.11 0.00 85 1014.4
20260905113956 69 79 1.0 6.0 0.00 0.11 0.00 86 1014.4
20260905113502 69 80 2.0 5.0 0.00 0.11 0.00 85 1014.4
20260905113456 69 78 2.0 5.0 0.00 0.11 0.00 85 1014.4
20260905113023 69 75 2.0 8.0 0.00 0.11 0.00 86 1014.3
20260905112956 69 72 2.0 8.0 0.00 0.11 0.00 85 1014.3
20260905112503 69 65 2.0 8.0 0.00 0.11 0.00 85 1014.4
20260905112456 69 65 2.0 8.0 0.00 0.11 0.00 85 1014.4
20260905112002 69 73 1.0 6.0 0.00 0.11 0.00 86 1014.3
20260905111955 69 77 1.0 6.0 0.00 0.11 0.00 86 1014.3
20260905111502 69 72 2.0 6.0 0.00 0.11 0.00 85 1014.2
20260905111455 69 70 2.0 6.0 0.00 0.11 0.00 85 1014.2
20260905111023 69 67 2.0 6.0 0.00 0.11 0.00 85 1014.3
20260905110955 69 66 2.0 6.0 0.00 0.11 0.00 85 1014.3
20260905110524 69 66 2.0 5.0 0.00 0.11 0.00 85 1014.2
20260905110455 69 66 2.0 5.0 0.00 0.11 0.00 85 1014.3
20260905110002 69 62 2.0 6.0 0.00 0.11 0.00 86 1014.3
20260905105955 69 61 2.0 6.0 0.00 0.11 0.00 85 1014.3
20260905105523 69 57 2.0 6.0 0.00 0.11 0.00 86 1014.3
20260905105455 69 61 2.0 6.0 0.00 0.11 0.00 86 1014.3
20260905105002 69 66 2.0 5.0 0.00 0.11 0.00 86 1014.3
20260905104955 69 67 2.0 5.0 0.00 0.11 0.00 86 1014.3
20260905104502 69 71 2.0 5.0 0.00 0.11 0.00 87 1014.3
20260905104455 69 70 2.0 5.0 0.00 0.11 0.00 87 1014.3
20260905104023 69 70 1.0 4.0 0.00 0.11 0.00 87 1014.3
20260905103955 69 63 1.0 4.0 0.00 0.11 0.00 88 1014.4
20260905103502 69 63 0.0 2.0 0.00 0.11 0.00 88 1014.5
20260905103455 69 62 0.0 2.0 0.00 0.11 0.00 88 1014.5
20260905103003 69 29 0.0 2.0 0.00 0.11 0.00 88 1014.6
20260905102955 69 29 0.0 2.0 0.00 0.11 0.00 88 1014.6
20260905102502 69 14 0.0 2.0 0.00 0.11 0.00 87 1014.3
20260905102455 69 1 0.0 2.0 0.00 0.11 0.00 87 1014.3
20260905102023 69 0 0.0 0.0 0.00 0.11 0.00 87 1014.3
20260905101955 69 0 0.0 0.0 0.00 0.11 0.00 87 1014.3
20260905101503 69 0 0.0 0.0 0.00 0.11 0.00 87 1014.2
20260905101455 69 0 0.0 0.0 0.00 0.11 0.00 87 1014.2
20260905101002 69 0 0.0 0.0 0.00 0.11 0.00 87 1014.3
20260905100955 69 0 0.0 0.0 0.00 0.11 0.00 87 1014.3
20260905100527 69 0 0.0 0.0 0.00 0.11 0.00 87 1014.2
20260905100454 69 0 0.0 0.0 0.00 0.11 0.00 87 1014.2
20260905100002 69 0 0.0 0.0 0.00 0.11 0.00 87 1014.3
20260905095954 69 0 0.0 0.0 0.00 0.11 0.00 87 1014.3
20260905095502 69 0 0.0 0.0 0.00 0.11 0.00 87 1014.3
20260905095454 69 0 0.0 0.0 0.00 0.11 0.00 87 1014.3
20260905095003 69 0 0.0 0.0 0.00 0.11 0.00 87 1014.4
20260905094954 69 0 0.0 0.0 0.00 0.11 0.00 87 1014.4
20260905094503 69 0 0.0 0.0 0.00 0.11 0.00 87 1014.4
20260905094454 69 0 0.0 0.0 0.00 0.11 0.00 87 1014.4
20260905094002 69 0 0.0 0.0 0.00 0.11 0.00 87 1014.4
20260905093954 69 0 0.0 0.0 0.00 0.11 0.00 87 1014.4
20260905093503 69 0 0.0 0.0 0.00 0.11 0.00 87 1014.4
20260905093454 69 0 0.0 0.0 0.00 0.11 0.00 87 1014.3
20260905093002 69 355 0.0 1.0 0.00 0.11 0.00 87 1014.3
20260905092954 69 355 0.0 1.0 0.00 0.11 0.00 87 1014.3
20260905092503 69 355 0.0 2.0 0.00 0.11 0.00 87 1014.3
20260905092454 69 355 0.0 2.0 0.00 0.11 0.00 87 1014.3
20260905092003 69 355 0.0 2.0 0.00 0.11 0.00 87 1014.2
20260905091954 69 355 0.0 2.0 0.00 0.11 0.00 87 1014.2
20260905091502 69 355 0.0 1.0 0.00 0.11 0.00 87 1014.0
20260905091454 69 355 0.0 1.0 0.00 0.11 0.00 87 1014.0
20260905091003 69 18 0.0 3.0 0.00 0.11 0.00 87 1014.0
20260905090954 69 18 0.0 3.0 0.00 0.11 0.00 87 1014.0
20260905090503 69 44 0.0 3.0 0.00 0.11 0.00 87 1013.8
20260905090454 69 62 0.0 3.0 0.00 0.11 0.00 87 1013.8
20260905090023 69 85 1.0 3.0 0.00 0.11 0.00 87 1013.7
20260905085954 69 85 1.0 3.0 0.00 0.11 0.00 87 1013.7
20260905085503 69 85 1.0 3.0 0.00 0.11 0.00 87 1013.5
20260905085454 69 85 1.0 3.0 0.00 0.11 0.00 87 1013.5
20260905085003 69 86 1.0 3.0 0.00 0.11 0.00 87 1013.3
20260905084954 69 86 1.0 3.0 0.00 0.11 0.00 87 1013.3
20260905084523 69 87 0.0 3.0 0.00 0.11 0.00 87 1013.3
20260905084454 69 88 0.0 3.0 0.00 0.11 0.00 87 1013.4
20260905084003 69 88 0.0 3.0 0.00 0.11 0.00 87 1013.3
20260905083954 69 88 0.0 3.0 0.00 0.11 0.00 87 1013.2
20260905083503 69 88 0.0 3.0 0.00 0.11 0.00 87 1013.2
20260905083453 69 88 0.0 3.0 0.00 0.11 0.00 87 1013.3
20260905083002 69 88 0.0 2.0 0.00 0.11 0.00 87 1013.2
20260905082953 69 88 0.0 2.0 0.00 0.11 0.00 87 1013.4
20260905082502 69 88 0.0 2.0 0.00 0.11 0.00 87 1013.5
20260905082453 69 88 0.0 2.0 0.00 0.11 0.00 87 1013.5
20260905082024 69 88 0.0 2.0 0.00 0.11 0.00 88 1013.5
20260905081953 69 88 0.0 2.0 0.00 0.11 0.00 88 1013.7
20260905081524 69 88 0.0 2.0 0.00 0.11 0.00 88 1013.6
20260905081453 69 88 0.0 2.0 0.00 0.11 0.00 88 1013.5
20260905081027 69 0 0.0 0.0 0.00 0.11 0.00 88 1013.4
20260905080953 69 0 0.0 0.0 0.00 0.11 0.00 88 1013.5
20260905080503 69 0 0.0 0.0 0.00 0.11 0.00 88 1013.4
20260905080453 70 0 0.0 0.0 0.00 0.11 0.00 88 1013.4
20260905080003 70 0 0.0 0.0 0.00 0.11 0.00 88 1013.5
20260905075953 70 0 0.0 0.0 0.00 0.11 0.00 88 1013.5
20260905075505 70 0 0.0 0.0 0.00 0.11 0.00 88 1013.7
20260905075453 70 0 0.0 0.0 0.00 0.11 0.00 88 1013.7
20260905075003 70 88 0.0 2.0 0.00 0.11 0.00 88 1013.5
20260905074953 70 88 0.0 2.0 0.00 0.11 0.00 88 1013.5
20260905074503 70 88 0.0 2.0 0.00 0.11 0.00 88 1013.5
20260905074453 70 88 0.0 2.0 0.00 0.11 0.00 88 1013.5
20260905074002 70 88 0.0 2.0 0.00 0.11 0.00 89 1013.6
20260905073953 70 88 0.0 2.0 0.00 0.11 0.00 89 1013.6
20260905073506 70 88 0.0 2.0 0.00 0.11 0.00 89 1013.8
20260905073453 70 88 0.0 2.0 0.00 0.11 0.00 89 1013.7
20260905073006 70 88 1.0 4.0 0.00 0.11 0.00 89 1013.5
20260905072953 70 89 1.0 4.0 0.00 0.11 0.00 89 1013.6
20260905072502 70 87 1.0 4.0 0.00 0.11 0.00 89 1013.5
20260905072453 70 86 1.0 4.0 0.00 0.11 0.00 89 1013.5
20260905072024 70 77 1.0 3.0 0.00 0.11 0.00 89 1013.4
20260905071952 70 75 1.0 3.0 0.00 0.11 0.00 89 1013.5
20260905071524 70 69 1.0 3.0 0.00 0.11 0.00 89 1013.4
20260905071452 70 69 1.0 3.0 0.00 0.11 0.00 90 1013.4
20260905071005 70 67 0.0 3.0 0.00 0.11 0.00 90 1013.3
20260905070952 70 66 0.0 3.0 0.00 0.11 0.00 90 1013.3
20260905070503 70 70 1.0 6.0 0.00 0.11 0.00 90 1013.2
20260905070452 70 70 1.0 6.0 0.00 0.11 0.00 90 1013.3
20260905070024 70 69 1.0 6.0 0.00 0.11 0.00 90 1013.1
20260905065952 70 69 2.0 6.0 0.00 0.11 0.00 90 1013.1
20260905065502 70 63 1.0 4.0 0.00 0.11 0.00 91 1013.0
20260905065452 70 64 1.0 4.0 0.00 0.11 0.00 91 1013.0
20260905065002 70 70 1.0 4.0 0.00 0.11 0.00 91 1013.1
20260905064952 70 72 1.0 4.0 0.00 0.11 0.00 91 1013.0
20260905064502 70 79 1.0 4.0 0.00 0.11 0.00 91 1012.9
20260905064452 70 80 1.0 4.0 0.00 0.11 0.00 91 1013.1
20260905064024 70 81 0.0 3.0 0.00 0.11 0.00 91 1013.0
20260905063952 70 78 0.0 3.0 0.00 0.11 0.00 91 1013.1
20260905063502 70 75 0.0 3.0 0.00 0.11 0.00 91 1013.2
20260905063452 70 74 0.0 3.0 0.00 0.11 0.00 92 1013.2
20260905063003 70 65 0.0 2.0 0.00 0.11 0.00 91 1013.3
20260905062952 70 65 0.0 1.0 0.00 0.11 0.00 92 1013.3
20260905062503 70 65 0.0 1.0 0.00 0.11 0.00 92 1013.4
20260905062452 70 65 0.0 1.0 0.00 0.11 0.00 92 1013.4
20260905062006 70 65 0.0 1.0 0.00 0.11 0.00 92 1013.6
20260905061952 70 65 0.0 1.0 0.00 0.11 0.00 92 1013.6
20260905061503 70 65 0.0 2.0 0.00 0.11 0.00 92 1013.6
20260905061452 70 65 0.0 2.0 0.00 0.11 0.00 92 1013.7
20260905061003 70 65 0.0 2.0 0.00 0.11 0.00 92 1013.7
20260905060952 70 65 0.0 2.0 0.00 0.11 0.00 92 1013.7
20260905060503 70 65 0.0 2.0 0.00 0.11 0.00 92 1013.8
20260905060452 70 65 0.0 2.0 0.00 0.11 0.00 92 1013.8
20260905060003 70 65 0.0 2.0 0.00 0.11 0.00 92 1013.9
20260905055951 70 65 0.0 2.0 0.00 0.11 0.00 92 1014.0
20260905055506 70 0 0.0 0.0 0.00 0.11 0.00 92 1014.0
20260905055451 70 0 0.0 0.0 0.00 0.11 0.00 91 1014.1
20260905055003 70 0 0.0 0.0 0.00 0.11 0.00 92 1014.0
20260905054951 70 0 0.0 0.0 0.00 0.11 0.00 92 1014.0
20260905054506 70 0 0.0 0.0 0.00 0.11 0.00 91 1014.0
20260905054451 70 0 0.0 0.0 0.00 0.11 0.00 91 1013.9
20260905054027 70 0 0.0 0.0 0.00 0.11 0.00 91 1013.8
20260905053951 70 0 0.0 0.0 0.00 0.11 0.00 91 1013.9
20260905053502 70 0 0.0 0.0 0.00 0.11 0.00 91 1013.7
20260905053451 70 0 0.0 0.0 0.00 0.11 0.00 91 1013.8
20260905053003 70 0 0.0 0.0 0.00 0.11 0.00 91 1013.7
20260905052951 70 0 0.0 0.0 0.00 0.11 0.00 91 1013.7
20260905052503 70 0 0.0 0.0 0.00 0.11 0.00 91 1013.6
20260905052451 70 0 0.0 0.0 0.00 0.11 0.00 91 1013.6
20260905052003 70 0 0.0 0.0 0.00 0.11 0.00 91 1013.6
20260905051951 70 0 0.0 0.0 0.00 0.11 0.00 91 1013.6
20260905051503 70 0 0.0 0.0 0.00 0.11 0.00 90 1013.7
20260905051451 70 0 0.0 0.0 0.00 0.11 0.00 90 1013.7
20260905051003 70 0 0.0 0.0 0.00 0.11 0.00 90 1013.9
20260905050951 70 0 0.0 0.0 0.00 0.11 0.00 90 1013.9
20260905050502 70 0 0.0 0.0 0.00 0.11 0.00 90 1013.9
20260905050451 70 0 0.0 0.0 0.00 0.11 0.00 90 1013.9
20260905050006 70 0 0.0 0.0 0.00 0.11 0.00 90 1014.0
20260905045951 70 0 0.0 0.0 0.00 0.11 0.00 90 1014.0
20260905045524 70 0 0.0 0.0 0.00 0.11 0.00 90 1014.0
20260905045451 70 0 0.0 0.0 0.00 0.11 0.00 90 1014.0
20260905045024 70 0 0.0 0.0 0.00 0.11 0.00 90 1014.0
20260905044951 70 0 0.0 0.0 0.00 0.11 0.00 90 1014.0
20260905044503 71 0 0.0 0.0 0.00 0.11 0.00 90 1013.9
20260905044450 71 0 0.0 0.0 0.00 0.11 0.00 90 1014.0
20260905044003 71 0 0.0 0.0 0.00 0.11 0.00 89 1014.0
20260905043950 71 0 0.0 0.0 0.00 0.11 0.00 89 1014.1
20260905043527 71 0 0.0 0.0 0.00 0.11 0.00 89 1014.0
20260905043450 71 0 0.0 0.0 0.00 0.11 0.00 89 1014.0
20260905043003 71 0 0.0 0.0 0.00 0.11 0.00 89 1014.0
20260905042950 71 0 0.0 0.0 0.00 0.11 0.00 89 1014.1
20260905042504 71 0 0.0 0.0 0.00 0.11 0.00 89 1014.0
20260905042450 71 0 0.0 0.0 0.00 0.11 0.00 89 1014.0
20260905042003 71 65 0.0 2.0 0.00 0.11 0.00 89 1014.1
20260905041950 71 65 0.0 2.0 0.00 0.11 0.00 89 1014.1
20260905041503 71 65 0.0 2.0 0.00 0.11 0.00 89 1014.1
20260905041450 71 65 0.0 2.0 0.00 0.11 0.00 89 1014.1
20260905041003 72 39 0.0 2.0 0.00 0.11 0.00 89 1014.1
20260905040950 72 27 0.0 2.0 0.00 0.11 0.00 89 1014.1
20260905040503 72 11 0.0 2.0 0.00 0.11 0.00 89 1014.2
20260905040450 72 10 0.0 2.0 0.00 0.11 0.00 89 1014.2
20260905040024 72 5 0.0 2.0 0.00 0.11 0.00 89 1014.3
20260905035950 72 5 0.0 2.0 0.00 0.11 0.11 89 1014.3
20260905035503 72 5 0.0 2.0 0.00 0.11 0.11 89 1014.3
20260905035450 72 5 0.0 2.0 0.00 0.11 0.11 89 1014.3
20260905035003 72 6 0.0 2.0 0.00 0.11 0.11 89 1014.3
20260905034950 72 23 0.0 1.0 0.00 0.11 0.11 89 1014.3
20260905034503 72 23 0.0 1.0 0.00 0.11 0.11 89 1014.3
20260905034450 72 22 0.0 1.0 0.00 0.11 0.11 89 1014.3
20260905034024 72 22 0.0 2.0 0.00 0.11 0.11 89 1014.5
20260905033950 72 22 0.0 2.0 0.00 0.11 0.11 89 1014.5
20260905033527 72 22 1.0 3.0 0.00 0.11 0.11 89 1014.5
20260905033420 72 22 1.0 3.0 0.00 0.11 0.11 89 1014.5
20260905033024 72 22 1.0 3.0 0.00 0.11 0.11 89 1014.6
20260905032920 72 22 1.0 3.0 0.00 0.11 0.11 89 1014.6
20260905032503 72 25 1.0 3.0 0.00 0.11 0.11 89 1014.6
20260905032420 72 25 1.0 3.0 0.00 0.11 0.11 89 1014.6
20260905032006 72 29 1.0 3.0 0.00 0.11 0.11 89 1014.5
20260905031920 72 36 1.0 4.0 0.00 0.11 0.11 89 1014.6
20260905031503 72 342 1.0 4.0 0.00 0.11 0.11 89 1014.5
20260905031419 72 340 1.0 5.0 0.00 0.11 0.11 89 1014.5
20260905031024 73 349 2.0 6.0 0.00 0.11 0.11 89 1014.5
20260905030919 73 345 1.0 6.0 0.00 0.11 0.11 89 1014.5
20260905030503 73 13 1.0 6.0 0.00 0.11 0.11 89 1014.6
20260905030419 73 31 1.0 6.0 0.00 0.11 0.11 90 1014.6
20260905030003 73 84 0.0 2.0 0.00 0.11 0.11 89 1014.6
20260905025919 73 84 0.0 2.0 0.00 0.11 0.11 89 1014.5
20260905025503 73 86 0.0 2.0 0.00 0.11 0.11 89 1014.5
20260905025419 73 86 0.0 2.0 0.00 0.11 0.11 89 1014.5
20260905025004 73 86 0.0 2.0 0.00 0.11 0.11 89 1014.4
20260905024919 73 86 0.0 2.0 0.00 0.11 0.11 89 1014.4
20260905024524 73 86 0.0 2.0 0.00 0.11 0.11 89 1014.5
20260905024419 73 86 0.0 2.0 0.00 0.11 0.11 89 1014.5
20260905024003 73 86 0.0 1.0 0.00 0.11 0.11 89 1014.4
20260905023919 73 86 0.0 1.0 0.00 0.11 0.11 89 1014.4
20260905023503 73 86 0.0 1.0 0.00 0.11 0.11 89 1014.4
20260905023419 73 86 0.0 2.0 0.00 0.11 0.11 89 1014.4
20260905023003 73 86 0.0 2.0 0.00 0.11 0.11 89 1014.4
20260905022919 73 86 0.0 2.0 0.00 0.11 0.11 89 1014.4
20260905022524 73 86 0.0 2.0 0.00 0.11 0.11 89 1014.4
20260905022419 73 0 0.0 0.0 0.00 0.11 0.11 89 1014.4
20260905022003 73 0 0.0 0.0 0.00 0.11 0.11 89 1014.4
20260905021919 73 0 0.0 0.0 0.00 0.11 0.11 89 1014.4
20260905021503 74 0 0.0 0.0 0.00 0.11 0.11 89 1014.4
20260905021419 74 0 0.0 0.0 0.00 0.11 0.11 89 1014.4
20260905021006 74 0 0.0 0.0 0.00 0.11 0.11 89 1014.5
20260905020919 74 0 0.0 0.0 0.00 0.11 0.11 89 1014.5
20260905020506 74 0 0.0 0.0 0.00 0.11 0.11 88 1014.6
20260905020419 74 0 0.0 0.0 0.00 0.11 0.11 88 1014.6
20260905020004 74 0 0.0 0.0 0.00 0.11 0.11 88 1014.6
20260905015919 74 0 0.0 0.0 0.00 0.11 0.11 89 1014.6
20260905015503 74 86 0.0 1.0 0.00 0.11 0.11 88 1014.5
20260905015419 74 86 0.0 1.0 0.00 0.11 0.11 88 1014.5
20260905015003 74 86 0.0 3.0 0.00 0.11 0.11 89 1014.6
20260905014918 74 87 0.0 3.0 0.00 0.11 0.11 89 1014.6
20260905014504 74 84 0.0 3.0 0.00 0.11 0.11 89 1014.6
20260905014418 74 82 0.0 3.0 0.00 0.11 0.11 88 1014.7
20260905014003 74 50 1.0 5.0 0.00 0.11 0.11 88 1014.7
20260905013918 74 45 1.0 5.0 0.00 0.11 0.11 88 1014.6
20260905013503 74 51 1.0 5.0 0.00 0.11 0.11 88 1014.5
20260905013418 74 54 1.0 5.0 0.00 0.11 0.11 88 1014.6
20260905013007 74 65 1.0 5.0 0.00 0.11 0.11 88 1014.5
20260905012918 74 69 1.0 4.0 0.00 0.11 0.11 88 1014.5
20260905012503 74 72 1.0 7.0 0.00 0.11 0.11 87 1014.5
20260905012418 74 68 1.0 7.0 0.00 0.11 0.11 87 1014.6
20260905012003 74 68 2.0 7.0 0.00 0.11 0.11 87 1014.5
20260905011918 74 66 2.0 7.0 0.00 0.11 0.11 87 1014.5
20260905011503 75 76 1.0 6.0 0.00 0.11 0.11 87 1014.4
20260905011418 75 81 1.0 6.0 0.00 0.11 0.11 87 1014.5
20260905011003 75 88 1.0 9.0 0.00 0.11 0.11 87 1014.5
20260905010918 75 87 1.0 9.0 0.00 0.11 0.11 87 1014.5
20260905010503 75 79 1.0 9.0 0.00 0.11 0.11 86 1014.5
20260905010418 75 76 1.0 9.0 0.00 0.11 0.11 86 1014.5
20260905010007 76 72 1.0 6.0 0.00 0.11 0.11 86 1014.5
20260905005918 76 77 1.0 6.0 0.00 0.11 0.11 86 1014.5
20260905005503 76 83 1.0 6.0 0.00 0.11 0.11 86 1014.3
20260905005418 76 86 1.0 6.0 0.00 0.11 0.11 86 1014.3
20260905005022 76 83 1.0 6.0 0.00 0.11 0.11 86 1014.3
20260905004848 76 79 1.0 4.0 0.00 0.11 0.11 86 1014.3
20260905004501 77 80 1.0 4.0 0.00 0.11 0.11 86 1014.2
20260905004347 77 80 1.0 4.0 0.00 0.11 0.11 86 1014.2
20260905004001 77 85 0.0 3.0 0.00 0.11 0.11 85 1014.3
20260905003847 77 82 0.0 3.0 0.00 0.11 0.11 85 1014.2
20260905003525 77 76 0.0 3.0 0.00 0.11 0.11 85 1014.2
20260905003347 77 76 0.0 3.0 0.00 0.11 0.11 85 1014.1
20260905003001 77 76 0.0 3.0 0.00 0.11 0.11 85 1014.1
20260905002847 77 69 0.0 2.0 0.00 0.11 0.11 85 1014.1
20260905002501 77 69 0.0 1.0 0.00 0.11 0.11 85 1014.0
20260905002347 78 69 0.0 1.0 0.00 0.11 0.11 85 1014.0
20260905002005 78 69 0.0 1.0 0.00 0.11 0.11 84 1014.0
20260905001847 78 69 0.0 1.0 0.00 0.11 0.11 84 1014.0
20260905001501 78 69 0.0 3.0 0.00 0.11 0.11 84 1013.9
20260905001347 78 67 1.0 3.0 0.00 0.11 0.11 84 1013.9
20260905001001 78 65 1.0 5.0 0.00 0.11 0.11 84 1013.8
20260905000847 78 64 1.0 5.0 0.00 0.11 0.11 83 1013.7
20260905000501 78 60 0.0 5.0 0.00 0.11 0.11 83 1013.7
20260905000348 78 41 0.0 5.0 0.00 0.11 0.11 83 1013.7
20260905000023 78 351 0.0 2.0 0.00 0.11 0.11 83 1013.7
20260904235847 79 342 0.0 2.0 0.00 0.11 0.11 82 1013.7
20260904235501 79 338 0.0 2.0 0.00 0.11 0.11 81 1013.6
20260904235347 79 305 0.0 3.0 0.00 0.11 0.11 81 1013.6
20260904235004 79 304 1.0 3.0 0.00 0.11 0.11 80 1013.7
20260904234847 79 304 1.0 3.0 0.00 0.11 0.11 80 1013.6
20260904234502 79 304 1.0 3.0 0.00 0.11 0.11 79 1013.6
20260904234347 79 304 1.0 3.0 0.00 0.11 0.11 80 1013.7
20260904234022 79 304 1.0 3.0 0.00 0.11 0.11 79 1013.6
20260904233846 79 304 0.0 3.0 0.00 0.11 0.11 80 1013.6
20260904233501 79 304 0.0 3.0 0.00 0.11 0.11 80 1013.6
20260904233346 79 304 0.0 3.0 0.00 0.11 0.11 80 1013.6
20260904233022 79 304 1.0 3.0 0.00 0.11 0.11 80 1013.6
20260904232846 79 304 1.0 3.0 0.00 0.11 0.11 80 1013.6
20260904232502 79 304 2.0 4.0 0.00 0.11 0.11 80 1013.5
20260904232346 79 304 2.0 4.0 0.00 0.11 0.11 80 1013.5
20260904232001 79 305 2.0 4.0 0.00 0.11 0.11 79 1013.5
20260904231846 79 305 1.0 4.0 0.00 0.11 0.11 79 1013.4
20260904231502 79 306 1.0 4.0 0.00 0.11 0.11 79 1013.3
20260904231346 79 308 1.0 4.0 0.00 0.11 0.11 80 1013.3
20260904231001 79 309 1.0 4.0 0.00 0.11 0.11 79 1013.3
20260904230846 79 309 2.0 4.0 0.00 0.11 0.11 79 1013.2
20260904230525 79 310 2.0 4.0 0.00 0.11 0.11 79 1013.2
20260904230346 79 310 2.0 4.0 0.00 0.11 0.11 79 1013.1
20260904230002 79 310 1.0 4.0 0.00 0.11 0.11 79 1013.1
20260904225846 79 310 2.0 5.0 0.00 0.11 0.11 80 1013.1
20260904225501 79 309 2.0 5.0 0.00 0.11 0.11 79 1013.1
20260904225346 79 309 2.0 5.0 0.00 0.11 0.11 80 1013.2
20260904225004 79 309 2.0 5.0 0.00 0.11 0.11 79 1013.2
20260904224846 79 310 1.0 4.0 0.00 0.11 0.11 79 1013.2
20260904224501 79 310 1.0 4.0 0.00 0.11 0.11 79 1013.1
20260904224346 79 310 1.0 4.0 0.00 0.11 0.11 79 1013.1
20260904224001 79 310 1.0 4.0 0.00 0.11 0.11 79 1013.1
20260904223846 79 310 1.0 4.0 0.00 0.11 0.11 79 1013.2
20260904223504 79 310 1.0 3.0 0.00 0.11 0.11 79 1013.2
20260904223345 79 310 2.0 3.0 0.00 0.11 0.11 79 1013.2
20260904223001 79 308 2.0 7.0 0.00 0.11 0.11 79 1013.1
20260904222845 79 311 2.0 7.0 0.00 0.11 0.11 80 1013.1
20260904222502 79 315 2.0 7.0 0.00 0.11 0.11 79 1013.2
20260904222345 79 317 2.0 7.0 0.00 0.11 0.11 79 1013.1
20260904222001 79 316 2.0 4.0 0.00 0.11 0.11 79 1013.2
20260904221845 79 311 2.0 4.0 0.00 0.11 0.11 79 1013.1
20260904221501 79 301 3.0 6.0 0.00 0.11 0.11 79 1013.1
20260904221345 79 296 3.0 8.0 0.00 0.11 0.11 79 1013.1
20260904221023 79 299 3.0 8.0 0.00 0.11 0.11 79 1013.2
20260904220845 79 297 3.0 8.0 0.00 0.11 0.11 79 1013.3
20260904220501 79 295 3.0 8.0 0.00 0.11 0.11 79 1013.2
20260904220345 80 296 3.0 8.0 0.00 0.11 0.11 79 1013.2
20260904220002 79 294 3.0 8.0 0.00 0.11 0.11 80 1013.2
20260904215845 79 297 3.0 8.0 0.00 0.11 0.11 79 1013.2
20260904215502 80 298 3.0 8.0 0.00 0.11 0.11 79 1013.2
20260904215345 80 296 3.0 8.0 0.00 0.11 0.11 79 1013.1
20260904215001 79 290 3.0 8.0 0.00 0.11 0.11 80 1013.0
20260904214845 79 286 3.0 8.0 0.00 0.11 0.11 79 1013.1
20260904214501 79 300 3.0 8.0 0.00 0.11 0.11 80 1013.0
20260904214345 79 306 3.0 8.0 0.00 0.11 0.11 80 1013.0
20260904214002 79 311 4.0 8.0 0.00 0.11 0.11 80 1013.0
20260904213845 79 316 4.0 8.0 0.00 0.11 0.11 80 1013.0
20260904213502 79 307 4.0 8.0 0.00 0.11 0.11 80 1013.0
20260904213345 79 303 4.0 8.0 0.00 0.11 0.11 79 1013.0
20260904213001 79 297 4.0 8.0 0.00 0.11 0.11 80 1012.9
20260904212845 79 295 3.0 8.0 0.00 0.11 0.11 80 1012.8
20260904212505 79 300 3.0 8.0 0.00 0.11 0.11 80 1012.7
20260904212344 79 302 3.0 8.0 0.00 0.11 0.11 80 1012.5
20260904212001 79 307 3.0 7.0 0.00 0.11 0.11 81 1012.5
20260904211844 79 304 3.0 8.0 0.00 0.11 0.11 80 1012.5
20260904211522 79 299 3.0 8.0 0.00 0.11 0.11 80 1012.6
20260904211344 79 299 4.0 9.0 0.00 0.11 0.11 80 1012.6
20260904211002 79 297 5.0 9.0 0.00 0.11 0.11 80 1012.6
20260904210844 79 296 4.0 9.0 0.00 0.11 0.11 80 1012.6
20260904210502 78 302 5.0 9.0 0.00 0.11 0.11 80 1012.6
20260904210344 78 306 4.0 9.0 0.00 0.11 0.11 81 1012.4
20260904210004 78 316 3.0 8.0 0.00 0.11 0.11 81 1012.2
20260904205844 78 322 4.0 8.0 0.00 0.11 0.11 81 1012.2
20260904205523 78 325 4.0 10.0 0.00 0.11 0.11 81 1012.3
20260904205344 78 318 4.0 10.0 0.00 0.11 0.11 81 1012.3
20260904205002 78 316 3.0 10.0 0.00 0.11 0.11 80 1012.3
20260904204844 78 310 3.0 10.0 0.00 0.12 0.11 80 1012.4
20260904204501 78 307 3.0 8.0 0.00 0.12 0.11 81 1012.4
20260904204344 78 313 3.0 5.0 0.00 0.12 0.11 81 1012.4
20260904204002 78 320 3.0 8.0 0.00 0.12 0.11 81 1012.2
20260904203844 78 321 4.0 8.0 0.00 0.13 0.11 81 1012.2
20260904203501 78 318 5.0 10.0 0.00 0.14 0.11 81 1012.1
20260904203344 78 318 4.0 10.0 0.00 0.15 0.11 80 1012.2